Home   Weather   Davenport   Past weeks

Flag for USA Past Weather in Davenport, Iowa, USA — Yesterday and Last 2 Weeks

Now
44 °F

Overcast.


Feels Like: 37 °F
Forecast: 38 / 49 °F
Wind: 16 mph from West

Location: Davenport Municipal Airport

Current Time: Apr 27, 2017 at 5:51:09 pm

Latest Report: Apr 27, 2017 at 4:52 pm


Visibility: 10 mi

Pressure: 29.74 "Hg

Humidity: 73%

Dew Point: 36 °F

Location of DavenportLocation

Past Weather in Davenport — Graph

°F

Davenport Temperature Yesterday

Maximum temperature yesterday: 70 °F (at 12:52 am)
Minimum temperature yesterday: 45 °F (at 11:52 pm)
Average temperature yesterday: 55 °F

High & Low Weather Summary for the Past Weeks

 TemperatureHumidityPressure
High81 °F (Apr 15, 1:52 pm)96% (Apr 26, 7:52 am)30.27 "Hg (Apr 26, 7:52 am)
Low34 °F (Apr 23, 5:52 am)13% (Apr 24, 4:52 pm)29.35 "Hg (Apr 26, 7:52 am)
Average58 °F65%29.93 "Hg
* Reported Apr 12 3:52 pm — Apr 27 3:52 pm, Davenport, Weather by CustomWeather, © 2017

Note: Actual official high and low records may vary slightly from our data, if they occured in-between our weather recording intervals... More about our weather records

Advertising

Davenport Weather History for the Previous 24 Hours

Scroll right to see more
 ConditionsComfort  
Time TempWeatherWind HumidityBarometerVisibility
3:52 pm
Thu, Apr 27
43 °FMostly cloudy.17 mph74%29.74 "Hg10 mi
2:52 pm42 °FOvercast.21 mph73%29.72 "Hg10 mi
1:52 pm41 °FOvercast.20 mph76%29.70 "Hg10 mi
12:52 pm41 °FMostly cloudy.22 mph80%29.67 "Hg10 mi
11:52 am40 °FMostly cloudy.18 mph83%29.66 "Hg10 mi
10:52 am40 °FOvercast.21 mph83%29.65 "Hg10 mi
9:52 am39 °FMostly cloudy.21 mph86%29.62 "Hg10 mi
9:16 am39 °FMostly cloudy.24 mph86%29.59 "Hg10 mi
9:07 am39 °FMostly cloudy.21 mph86%29.59 "Hg10 mi
7:52 am39 °FOvercast.22 mph86%29.57 "Hg10 mi
7:03 am38 °FLight rain. Mostly cloudy.15 mph90%29.52 "Hg10 mi
6:52 am38 °FLight rain. Mostly cloudy.21 mph90%29.52 "Hg10 mi
6:10 am38 °FLight rain. Overcast.21 mph90%29.48 "Hg9 mi
5:52 am38 °FLight rain. Low clouds.20 mph93%29.49 "Hg10 mi
4:52 am39 °FLight rain. Mostly cloudy.18 mph93%29.47 "Hg10 mi
4:35 am39 °FLight rain. Mostly cloudy.21 mph93%29.46 "Hg10 mi
4:01 am41 °FLight rain. Mostly cloudy.21 mph93%29.46 "Hg8 mi
3:33 am41 °FRain. Overcast.17 mph93%29.47 "Hg7 mi
3:03 am42 °FRain. Fog.16 mph92%29.47 "Hg6 mi
2:55 am42 °FRain. Fog.14 mph92%29.47 "Hg4 mi
2:19 am42 °FRain. Fog.14 mph92%29.47 "Hg4 mi
1:59 am42 °FRain. Fog.14 mph92%29.46 "Hg5 mi
1:31 am43 °FRain. Fog.14 mph93%29.47 "Hg5 mi
12:57 am43 °FRain. Fog.16 mph93%29.47 "Hg4 mi
11:52 pm
Wed, Apr 26
45 °FLight rain. Fog.14 mph90%29.49 "Hg6 mi
11:22 pm46 °FRain. Fog.17 mph86%29.48 "Hg5 mi
10:52 pm47 °FOvercast.14 mph83%29.49 "Hg10 mi
10:17 pm47 °FMostly cloudy.13 mph86%29.50 "Hg10 mi
9:52 pm48 °FOvercast.13 mph83%29.50 "Hg10 mi
9:12 pm48 °FMostly cloudy.9 mph86%29.51 "Hg10 mi
8:27 pm49 °FLight rain. Mostly cloudy.12 mph86%29.48 "Hg7 mi
7:52 pm49 °FLight rain. Mostly cloudy.8 mph90%29.50 "Hg7 mi
6:52 pm50 °FLight rain. Overcast.10 mph86%29.52 "Hg9 mi
5:52 pm51 °FOvercast.10 mph83%29.52 "Hg10 mi
Weather by CustomWeather, © 2017

See weather overviewHow to use our weather pages